Nellis AFB, NV

10:23 AM PST on December 06, 2019 (GMT -0800)
Nellis Air Force Base

Weather History for KLSV - October, 2019

Change the Weather History Date:

Sunday, October 6, 2019

  Actual Average Record
Temperature  
Mean Temperature 70 °F -  
Max Temperature 84 °F 86 °F 96 °F (1996)
Min Temperature 57 °F 59 °F 50 °F (1998)
Cooling Degree Days 6    
Growing Degree Days 20 (Base 50)    
Moisture  
Dew Point 19 °F    
Average Humidity 14    
Maximum Humidity 18    
Minimum Humidity 11    
Precipitation  
Precipitation 0.00 in - - ()
Sea Level Pressure  
Sea Level Pressure 30.05 in    
Wind  
Wind Speed 8 mph (NNE)    
Max Wind Speed 30 mph    
Max Gust Speed 33 mph    
Visibility 10 miles    
Events      
Averages and records for this station are not official NWS values.
T = Trace of Precipitation, MM = Missing Value Source: NWS Daily Summary

Daily Weather History Graph

Daily Weather History Graph

Search for Another Location

Airport or City:

Astronomy

Oct. 06, 2019 Rise Set
Actual Time 6:39 AM PDT 6:16 PM PDT
Civil Twilight 6:13 AM PDT 6:42 PM PDT
Nautical Twilight 5:43 AM PDT 7:12 PM PDT
Astronomical Twilight 5:13 AM PDT 7:41 PM PDT
Moon 2:45 PM PDT No Moon Set
Length of Visible Light 12h 28m
Length of Day
11h 37m
First Quarter, 61% of the Moon is Illuminated
Oct 6
First Quarter
Oct 13
Full
Oct 21
Last Quarter
Oct 27
New
Nov 4
First Quarter

Hourly Weather History & Observations

Time (PDT) Temp. Dew Point Humidity Pressure Visibility Wind Dir Wind Speed Gust Speed Precip Events Conditions
12:55 AM 58.3 °F 8.2 °F 14% 29.97 in 10.0 mi ENE 1.2 mph - N/A   Clear
1:55 AM 59.9 °F 9.9 °F 14% 29.98 in 10.0 mi NW 3.5 mph - N/A   Clear
2:55 AM 57.4 °F 8.6 °F 14% 29.99 in 10.0 mi Variable 1.2 mph - N/A   Clear
3:55 AM 59.9 °F 11.7 °F 15% 30.00 in 10.0 mi NW 1.2 mph - N/A   Clear
4:55 AM 66.4 °F 10.4 °F 11% 30.01 in 10.0 mi East 8.1 mph - N/A   Clear
5:55 AM 63.5 °F 10.2 °F 12% 30.05 in 10.0 mi SE 8.1 mph - N/A   Clear
6:55 AM 63.7 °F 11.7 °F 13% 30.08 in 10.0 mi Variable 6.9 mph - N/A   Clear
7:58 AM 68.7 °F 14.9 °F 13% 30.13 in 10.0 mi NNW 8.1 mph 12.7 mph N/A   Clear
8:58 AM 72.9 °F 22.5 °F 15% 30.16 in 10.0 mi NNE 12.7 mph - N/A   Clear
9:58 AM 75.0 °F 24.3 °F 15% 30.16 in 10.0 mi NNE 19.6 mph 27.6 mph N/A   Clear
10:58 AM 77.4 °F 24.4 °F 14% 30.16 in 10.0 mi North 29.9 mph 33.4 mph N/A   Clear
11:58 AM 78.4 °F 23.5 °F 13% 30.15 in 10.0 mi North 19.6 mph - N/A   Clear
12:58 PM 81.1 °F 23.7 °F 12% 30.13 in 10.0 mi NNW 19.6 mph 24.2 mph N/A   Clear
2:58 PM 83.7 °F 23.5 °F 11% 30.06 in 10.0 mi North 13.8 mph - N/A   Clear
3:58 PM 84.2 °F 23.9 °F 11% 30.04 in 10.0 mi NE 16.1 mph 20.7 mph N/A   Clear
3:59 PM 84.2 °F 24.8 °F 11% 30.04 in 10.0 mi North 12.7 mph 20.7 mph N/A   Clear
4:58 PM 83.8 °F 23.7 °F 11% 29.99 in 10.0 mi NNE 10.4 mph - N/A   Clear
5:58 PM 82.2 °F 24.4 °F 12% 30.00 in 10.0 mi NNE 9.2 mph - N/A   Clear
6:58 PM 77.4 °F 22.6 °F 13% 30.02 in 10.0 mi NNE 4.6 mph - N/A   Clear
7:56 PM 75.9 °F 23.4 °F 14% 30.03 in 10.0 mi West 4.6 mph - N/A   Clear
8:54 PM 70.3 °F 23.4 °F 17% 30.04 in 10.0 mi NE 4.6 mph - N/A   Clear
9:55 PM 69.4 °F 24.1 °F 18% 30.04 in 10.0 mi NE 8.1 mph - N/A   Clear
10:54 PM 70.2 °F 23.4 °F 17% 30.04 in 10.0 mi East 5.8 mph - N/A   Clear
11:55 PM 69.1 °F 21.0 °F 16% 30.04 in 10.0 mi Variable 3.5 mph - N/A   Clear